Location: Baia de Cri?
(46.1667°N, 22.7167°E)
Time: 23:07:34
(UTC+00:00)

Cosmos 2278 Rocket - Pass Details

Date: 15 January 2026
Orbit: 839 x 846 km, 71.0° (Epoch: 13 February)

Event Time Altitude Azimuth Distance (km) Brightness Sun altitude
Rises 04:56:07 0° 222° (SW) 3,381 5.1 -12.1°
Reaches altitude 10° 04:58:38 10° 227° (SW) 2,451 4.3 -11.7°
Maximum altitude 05:04:04 49° 302° (WNW) 1,071 2.4 -10.8°
Drops below altitude 10° 05:09:34 10° 18° (NNE) 2,470 4.6 -9.9°
Sets 05:12:07 0° 24° (NNE) 3,409 5.4 -9.5°
